FW1247 Weather Reports


time (UTC)temp
C
wind
direction
speed
KPH
gust
KPH
rain 1hr
cm
rain 24hr
cm
rain mn
cm
humidity
%
barometer
mb
20260905091600 18 219 19.3 37.0 0.00 0.91 0.03 78 1005.2
20260905090046 18 195 16.1 35.4 0.00 0.91 0.03 79 1005.2
20260905084543 17 261 19.3 33.8 0.00 0.99 0.03 79 1005.1
20260905083041 17 276 14.5 40.2 0.00 0.99 0.03 82 1005.0
20260905081539 17 202 14.5 32.2 0.00 0.99 0.03 85 1005.0
20260905080037 17 256 12.9 30.6 0.00 0.99 0.03 86 1004.9
20260905074536 17 201 12.9 27.4 0.00 1.17 0.03 86 1004.9
20260905073033 16 213 14.5 30.6 0.00 1.17 0.03 84 1004.8
20260905071530 17 216 11.3 24.1 0.00 1.17 0.03 82 1004.6
20260905070029 17 225 11.3 32.2 0.00 1.17 0.03 83 1004.5
20260905064527 16 284 11.3 30.6 0.00 1.24 0.03 84 1004.5
20260905063025 16 248 9.7 27.4 0.00 1.24 0.03 85 1004.5
20260905061524 16 276 11.3 29.0 0.00 1.24 0.03 85 1004.4
20260905060020 16 283 9.7 22.5 0.00 1.24 0.03 86 1004.3
20260905054523 15 224 9.7 24.1 0.00 1.27 0.03 86 1004.4
20260905053016 15 238 9.7 25.7 0.00 1.27 0.03 86 1004.2
20260905051514 15 288 8.0 19.3 0.00 1.27 0.03 86 1004.1
20260905050010 15 255 6.4 20.9 0.00 1.27 0.03 86 1004.0
20260905044510 15 234 11.3 25.7 0.00 1.27 0.03 87 1003.8
20260905043004 15 206 8.0 19.3 0.00 1.27 0.03 87 1003.7
20260905041506 15 258 9.7 27.4 0.00 1.27 0.03 87 1003.6
20260905040100 15 218 11.3 25.7 0.00 1.27 0.03 88 1003.4
20260905034558 15 251 8.0 20.9 0.00 1.27 0.03 88 1003.3
20260905033057 15 225 11.3 20.9 0.00 1.27 0.03 88 1003.3
20260905031604 14 202 8.0 16.1 0.00 1.27 0.03 88 1003.2
20260905030100 14 290 6.4 16.1 0.00 1.27 0.03 88 1003.2
20260905024559 14 289 9.7 16.1 0.00 1.27 0.03 88 1002.9
20260905023050 14 250 6.4 14.5 0.00 1.27 0.03 89 1002.9
20260905021549 14 234 4.8 12.9 0.00 1.27 0.03 89 1002.8
20260905020045 15 267 6.4 12.9 0.00 1.27 0.03 88 1002.6
20260905014543 15 281 12.9 24.1 0.03 1.27 0.03 88 1002.4
20260905013040 15 263 14.5 24.1 0.03 1.27 0.03 88 1002.2
20260905011537 15 277 14.5 27.4 0.03 1.27 0.03 87 1002.0
20260905010042 15 259 17.7 30.6 0.03 1.27 0.03 87 1001.7
20260905004533 15 281 12.9 35.4 0.00 1.24 0.00 86 1001.7
20260905003031 15 290 12.9 35.4 0.00 1.24 0.00 86 1001.5
20260905001527 15 271 16.1 30.6 0.00 1.24 0.00 87 1001.2
20260905000026 15 286 12.9 24.1 0.00 1.24 0.00 87 1001.1
20260904234523 15 242 9.7 25.7 0.00 1.24 0.00 87 1001.2
20260904233022 15 248 8.0 20.9 0.00 1.24 0.00 87 1001.2
20260904231520 15 252 9.7 32.2 0.00 1.24 0.00 87 1001.3
20260904230035 15 235 11.3 25.7 0.00 1.24 0.00 87 1001.1
20260904224522 15 226 11.3 29.0 0.00 1.24 0.00 87 1001.1
20260904223010 15 294 9.7 19.3 0.00 1.24 0.00 88 1001.1
20260904221506 15 292 11.3 29.0 0.00 1.24 0.00 88 1001.0
20260904220003 15 223 6.4 24.1 0.00 1.24 0.00 88 1000.9
20260904214508 15 294 6.4 17.7 0.00 1.24 1.24 88 1000.7
20260904213103 15 242 9.7 24.1 0.00 1.24 1.24 87 1000.7
20260904211600 15 267 17.7 30.6 0.00 1.24 1.24 86 1000.5
20260904210104 15 290 16.1 29.0 0.00 1.24 1.24 86 1000.5
20260904204559 15 278 17.7 35.4 0.00 1.24 1.24 85 1000.3
20260904203057 15 285 16.1 33.8 0.00 1.24 1.24 85 1000.1
20260904201554 15 287 14.5 30.6 0.00 1.24 1.24 86 1000.1
20260904200052 15 274 20.9 37.0 0.00 1.24 1.24 86 999.9
20260904194550 15 276 17.7 29.0 0.00 1.24 1.24 86 999.8
20260904193049 15 234 20.9 30.6 0.00 1.24 1.24 87 999.5
20260904191548 15 286 17.7 38.6 0.00 1.24 1.24 87 999.3
20260904190046 16 286 19.3 37.0 0.00 1.24 1.24 86 999.1
20260904184544 16 318 22.5 38.6 0.00 1.27 1.24 88 998.7
20260904183044 16 286 14.5 27.4 0.00 1.27 1.24 91 998.6
20260904181543 16 278 16.1 32.2 0.00 1.27 1.24 92 998.2
20260904180041 16 252 20.9 33.8 0.00 1.27 1.24 92 998.0
20260904174540 16 286 25.7 40.2 0.00 1.65 1.24 94 997.6
20260904173039 16 244 16.1 35.4 0.18 1.65 1.24 95 997.0
20260904171535 16 292 12.9 29.0 0.25 1.65 1.24 95 997.0
20260904170033 16 215 11.3 19.3 0.28 1.65 1.24 95 996.9
20260904164532 16 205 11.3 25.7 0.30 1.65 1.24 94 997.1
20260904163033 17 262 9.7 17.7 0.13 1.42 1.07 94 997.0
20260904161530 17 189 11.3 24.1 0.05 1.37 0.99 93 997.1
20260904160030 17 236 11.3 19.3 0.03 1.37 0.97 92 997.2
20260904154529 17 201 12.9 25.7 0.00 1.35 0.94 93 997.4
20260904153028 17 199 8.0 19.3 0.00 1.35 0.94 93 997.3
20260904151527 17 277 9.7 17.7 0.00 1.35 0.94 94 997.2
20260904150027 17 275 6.4 16.1 0.00 1.35 0.94 94 997.4
20260904144526 17 271 8.0 22.5 0.00 1.35 0.94 94 997.4
20260904143023 17 273 11.3 22.5 0.00 1.35 0.94 95 997.4
20260904141523 17 260 9.7 25.7 0.10 1.35 0.94 95 997.6
20260904140022 17 254 8.0 27.4 0.13 1.35 0.94 95 997.2
20260904134526 17 179 16.1 33.8 0.13 1.35 0.94 96 997.1
20260904133019 17 286 6.4 17.7 0.13 1.35 0.94 96 997.1
20260904131518 17 286 4.8 11.3 0.00 1.22 0.81 95 997.4
20260904130036 16 236 4.8 22.5 0.03 1.22 0.81 95 997.4
20260904124521 16 231 9.7 19.3 0.08 1.22 0.81 96 997.0
20260904123023 16 265 6.4 19.3 0.15 1.22 0.81 96 997.2
20260904121515 16 234 11.3 25.7 0.20 1.22 0.81 96 997.0
20260904120011 16 250 11.3 25.7 0.23 1.19 0.79 96 997.6
20260904114509 16 203 12.9 19.3 0.23 1.17 0.71 96 997.7
20260904113008 17 186 12.9 22.5 0.18 1.09 0.66 96 997.9
20260904111507 17 212 8.0 16.1 0.18 1.07 0.61 96 997.9
20260904110006 16 185 6.4 12.9 0.15 0.99 0.56 96 997.9
20260904104514 16 171 6.4 14.5 0.15 0.99 0.51 96 997.9
20260904103004 16 198 4.8 16.1 0.10 0.94 0.48 96 998.2
20260904101502 16 157 6.4 12.9 0.08 0.89 0.43 96 998.4
20260904100059 16 164 4.8 9.7 0.08 0.89 0.43 96 998.7
20260904094556 16 182 9.7 14.5 0.05 0.89 0.38 96 999.2
20260904093055 16 155 6.4 12.9 0.05 0.89 0.38 96 999.4